| time (UTC) | temp F | wind direction | speed MPH | gust MPH | rain 1hr in | rain 24hr in | rain mn in | humidity % | barometer mb |
| 20260507040807 | 58 | 331 | 3.0 | 3.0 | 0.00 | 0.02 | 0.00 | 89 | 1017.9 |
| 20260507040307 | 58 | 329 | 3.0 | 4.0 | 0.00 | 0.02 | 0.00 | 89 | 1017.8 |
| 20260507035807 | 58 | 331 | 3.0 | 4.0 | 0.00 | 0.02 | 0.00 | 89 | 1017.8 |
| 20260507035307 | 58 | 327 | 4.0 | 4.0 | 0.00 | 0.02 | 0.00 | 89 | 1017.8 |
| 20260507034807 | 58 | 314 | 5.0 | 6.0 | 0.00 | 0.02 | 0.00 | 89 | 1017.8 |
| 20260507034307 | 58 | 312 | 4.0 | 7.0 | 0.00 | 0.02 | 0.00 | 89 | 1017.8 |
| 20260507033807 | 58 | 300 | 3.0 | 4.0 | 0.00 | 0.02 | 0.00 | 89 | 1017.7 |
| 20260507033307 | 58 | 329 | 2.0 | 4.0 | 0.00 | 0.02 | 0.00 | 89 | 1017.5 |
| 20260507032807 | 57 | 58 | 2.0 | 3.0 | 0.00 | 0.02 | 0.00 | 89 | 1017.3 |
| 20260507032307 | 57 | 58 | 3.0 | 4.0 | 0.00 | 0.02 | 0.00 | 90 | 1017.3 |
| 20260507031807 | 57 | 59 | 3.0 | 4.0 | 0.00 | 0.02 | 0.00 | 90 | 1017.3 |
| 20260507031307 | 57 | 80 | 2.0 | 3.0 | 0.00 | 0.02 | 0.00 | 90 | 1017.3 |
| 20260507030807 | 57 | 81 | 1.0 | 2.0 | 0.00 | 0.02 | 0.00 | 90 | 1017.6 |
| 20260507030307 | 57 | 81 | 0.0 | 0.0 | 0.00 | 0.02 | 0.00 | 90 | 1017.6 |
| 20260507025807 | 57 | 84 | 1.0 | 1.0 | 0.00 | 0.02 | 0.00 | 90 | 1017.6 |
| 20260507025307 | 57 | 84 | 2.0 | 2.0 | 0.00 | 0.02 | 0.00 | 90 | 1017.7 |
| 20260507024807 | 57 | 84 | 2.0 | 3.0 | 0.00 | 0.02 | 0.00 | 90 | 1017.6 |
| 20260507024307 | 57 | 84 | 1.0 | 3.0 | 0.00 | 0.02 | 0.00 | 90 | 1017.6 |
| 20260507023807 | 57 | 104 | 0.0 | 0.0 | 0.00 | 0.02 | 0.00 | 90 | 1017.6 |
| 20260507023307 | 57 | 104 | 0.0 | 0.0 | 0.00 | 0.02 | 0.00 | 90 | 1017.6 |
| 20260507022807 | 57 | 104 | 0.0 | 0.0 | 0.00 | 0.02 | 0.00 | 90 | 1017.6 |
| 20260507022307 | 57 | 104 | 0.0 | 0.0 | 0.00 | 0.02 | 0.00 | 90 | 1017.5 |
| 20260507021807 | 57 | 104 | 0.0 | 0.0 | 0.00 | 0.02 | 0.00 | 90 | 1017.6 |
| 20260507021307 | 57 | 104 | 0.0 | 0.0 | 0.00 | 0.02 | 0.00 | 90 | 1017.6 |
| 20260507020807 | 57 | 104 | 1.0 | 2.0 | 0.00 | 0.02 | 0.00 | 90 | 1017.6 |
| 20260507020307 | 57 | 104 | 2.0 | 3.0 | 0.00 | 0.02 | 0.00 | 90 | 1017.5 |
| 20260507015807 | 57 | 104 | 2.0 | 3.0 | 0.00 | 0.02 | 0.00 | 90 | 1017.4 |
| 20260507015307 | 57 | 85 | 2.0 | 3.0 | 0.00 | 0.02 | 0.00 | 90 | 1017.5 |
| 20260507014807 | 57 | 85 | 2.0 | 3.0 | 0.00 | 0.02 | 0.00 | 90 | 1017.5 |
| 20260507014307 | 57 | 85 | 2.0 | 3.0 | 0.00 | 0.02 | 0.00 | 90 | 1017.6 |
| 20260507013807 | 57 | 85 | 3.0 | 3.0 | 0.00 | 0.02 | 0.00 | 90 | 1017.6 |
| 20260507013307 | 57 | 85 | 3.0 | 4.0 | 0.00 | 0.02 | 0.00 | 90 | 1017.5 |
| 20260507012807 | 57 | 86 | 2.0 | 4.0 | 0.00 | 0.02 | 0.00 | 90 | 1017.5 |
| 20260507012307 | 57 | 128 | 2.0 | 3.0 | 0.00 | 0.02 | 0.00 | 90 | 1017.6 |
| 20260507011807 | 57 | 145 | 2.0 | 4.0 | 0.00 | 0.02 | 0.00 | 90 | 1017.6 |
| 20260507011307 | 57 | 145 | 2.0 | 4.0 | 0.00 | 0.02 | 0.00 | 90 | 1017.6 |
| 20260507010807 | 57 | 155 | 2.0 | 4.0 | 0.00 | 0.02 | 0.00 | 89 | 1017.5 |
| 20260507010307 | 58 | 151 | 3.0 | 4.0 | 0.00 | 0.02 | 0.00 | 90 | 1017.4 |
| 20260507005807 | 58 | 146 | 3.0 | 4.0 | 0.00 | 0.02 | 0.00 | 90 | 1017.4 |
| 20260507005307 | 58 | 121 | 1.0 | 4.0 | 0.00 | 0.02 | 0.00 | 89 | 1017.3 |
| 20260507004807 | 58 | 112 | 1.0 | 3.0 | 0.00 | 0.02 | 0.00 | 89 | 1017.4 |
| 20260507004307 | 58 | 90 | 0.0 | 0.0 | 0.00 | 0.02 | 0.00 | 89 | 1017.3 |
| 20260507003807 | 58 | 82 | 0.0 | 0.0 | 0.00 | 0.02 | 0.00 | 89 | 1017.3 |
| 20260507003307 | 58 | 59 | 0.0 | 0.0 | 0.00 | 0.02 | 0.00 | 89 | 1017.4 |
| 20260507002807 | 58 | 310 | 0.0 | 0.0 | 0.00 | 0.02 | 0.00 | 89 | 1017.4 |
| 20260507002307 | 58 | 310 | 0.0 | 0.0 | 0.00 | 0.02 | 0.00 | 89 | 1017.3 |
| 20260507001807 | 58 | 310 | 0.0 | 0.0 | 0.00 | 0.02 | 0.00 | 89 | 1017.3 |
| 20260507001307 | 58 | 309 | 0.0 | 0.0 | 0.00 | 0.02 | 0.00 | 88 | 1017.3 |
| 20260507000807 | 59 | 310 | 0.0 | 0.0 | 0.00 | 0.02 | 0.00 | 88 | 1017.1 |
| 20260507000307 | 59 | 309 | 0.0 | 0.0 | 0.00 | 0.02 | 0.00 | 88 | 1017.2 |
| 20260506235807 | 59 | 309 | 0.0 | 0.0 | 0.00 | 0.02 | 0.00 | 88 | 1017.3 |
| 20260506235307 | 59 | 309 | 0.0 | 0.0 | 0.00 | 0.02 | 0.00 | 88 | 1017.2 |
| 20260506234807 | 59 | 309 | 0.0 | 0.0 | 0.00 | 0.02 | 0.00 | 88 | 1017.1 |
| 20260506234307 | 59 | 309 | 0.0 | 0.0 | 0.00 | 0.02 | 0.00 | 88 | 1017.0 |
| 20260506233807 | 59 | 309 | 0.0 | 0.0 | 0.00 | 0.02 | 0.00 | 88 | 1017.1 |
| 20260506233307 | 59 | 21 | 0.0 | 0.0 | 0.00 | 0.02 | 0.00 | 87 | 1017.0 |
| 20260506232807 | 59 | 21 | 0.0 | 0.0 | 0.00 | 0.02 | 0.00 | 87 | 1017.1 |
| 20260506232307 | 59 | 21 | 0.0 | 0.0 | 0.00 | 0.02 | 0.00 | 87 | 1016.9 |
| 20260506231807 | 59 | 21 | 0.0 | 0.0 | 0.00 | 0.02 | 0.00 | 87 | 1017.0 |
| 20260506231307 | 59 | 21 | 0.0 | 0.0 | 0.00 | 0.02 | 0.00 | 87 | 1017.0 |
| 20260506230807 | 59 | 21 | 0.0 | 0.0 | 0.00 | 0.02 | 0.00 | 87 | 1017.0 |
| 20260506230307 | 59 | 21 | 0.0 | 0.0 | 0.00 | 0.02 | 0.00 | 87 | 1016.9 |
| 20260506225807 | 59 | 21 | 0.0 | 0.0 | 0.00 | 0.02 | 0.00 | 87 | 1016.9 |
| 20260506225307 | 59 | 21 | 0.0 | 0.0 | 0.00 | 0.02 | 0.00 | 87 | 1017.0 |
| 20260506224807 | 59 | 21 | 0.0 | 0.0 | 0.00 | 0.02 | 0.00 | 86 | 1017.0 |
| 20260506224307 | 59 | 21 | 0.0 | 0.0 | 0.00 | 0.02 | 0.00 | 86 | 1017.0 |
| 20260506223807 | 59 | 21 | 0.0 | 0.0 | 0.00 | 0.02 | 0.00 | 86 | 1017.1 |
| 20260506223308 | 59 | 92 | 0.0 | 0.0 | 0.00 | 0.02 | 0.00 | 85 | 1017.1 |
| 20260506222807 | 59 | 92 | 0.0 | 0.0 | 0.00 | 0.02 | 0.00 | 85 | 1017.1 |
| 20260506222308 | 59 | 92 | 0.0 | 0.0 | 0.00 | 0.02 | 0.00 | 85 | 1017.0 |
| 20260506221808 | 60 | 92 | 0.0 | 0.0 | 0.00 | 0.02 | 0.00 | 84 | 1016.9 |
| 20260506221308 | 60 | 92 | 0.0 | 0.0 | 0.00 | 0.02 | 0.00 | 84 | 1017.0 |
| 20260506220808 | 60 | 142 | 0.0 | 0.0 | 0.00 | 0.02 | 0.00 | 83 | 1017.0 |
| 20260506220308 | 60 | 190 | 0.0 | 0.0 | 0.00 | 0.02 | 0.00 | 83 | 1016.8 |
| 20260506215808 | 60 | 190 | 0.0 | 1.0 | 0.00 | 0.02 | 0.02 | 83 | 1016.9 |
| 20260506215308 | 60 | 190 | 1.0 | 2.0 | 0.00 | 0.02 | 0.02 | 83 | 1017.0 |
| 20260506214808 | 60 | 190 | 2.0 | 2.0 | 0.00 | 0.02 | 0.02 | 84 | 1017.0 |
| 20260506214308 | 60 | 190 | 2.0 | 3.0 | 0.00 | 0.02 | 0.02 | 84 | 1017.1 |
| 20260506213808 | 60 | 190 | 2.0 | 2.0 | 0.00 | 0.02 | 0.02 | 84 | 1017.0 |
| 20260506213308 | 60 | 190 | 2.0 | 2.0 | 0.00 | 0.02 | 0.02 | 84 | 1017.0 |
| 20260506212808 | 60 | 190 | 2.0 | 2.0 | 0.00 | 0.02 | 0.02 | 84 | 1017.0 |
| 20260506212308 | 61 | 190 | 2.0 | 2.0 | 0.00 | 0.02 | 0.02 | 84 | 1017.0 |
| 20260506211808 | 60 | 190 | 1.0 | 2.0 | 0.00 | 0.02 | 0.02 | 83 | 1017.0 |
| 20260506211308 | 61 | 190 | 0.0 | 2.0 | 0.00 | 0.02 | 0.02 | 83 | 1017.1 |
| 20260506210808 | 61 | 190 | 0.0 | 2.0 | 0.00 | 0.02 | 0.02 | 83 | 1017.2 |
| 20260506210308 | 61 | 190 | 1.0 | 1.0 | 0.00 | 0.02 | 0.02 | 83 | 1017.3 |
| 20260506205808 | 61 | 190 | 2.0 | 3.0 | 0.00 | 0.02 | 0.02 | 82 | 1017.4 |
| 20260506205308 | 61 | 196 | 2.0 | 2.0 | 0.00 | 0.02 | 0.02 | 82 | 1017.4 |
| 20260506204808 | 61 | 197 | 2.0 | 2.0 | 0.00 | 0.02 | 0.02 | 82 | 1017.3 |
| 20260506204308 | 61 | 197 | 1.0 | 2.0 | 0.00 | 0.02 | 0.02 | 82 | 1017.3 |
| 20260506203808 | 61 | 197 | 2.0 | 3.0 | 0.00 | 0.02 | 0.02 | 82 | 1017.3 |
| 20260506203308 | 61 | 198 | 2.0 | 3.0 | 0.00 | 0.02 | 0.02 | 82 | 1017.4 |
| 20260506202808 | 61 | 198 | 3.0 | 3.0 | 0.00 | 0.02 | 0.02 | 82 | 1017.3 |
| 20260506202308 | 61 | 201 | 2.0 | 3.0 | 0.00 | 0.02 | 0.02 | 82 | 1017.4 |
| 20260506201808 | 61 | 209 | 2.0 | 3.0 | 0.00 | 0.02 | 0.02 | 82 | 1017.4 |
| 20260506201308 | 61 | 209 | 1.0 | 4.0 | 0.00 | 0.02 | 0.02 | 83 | 1017.3 |
| 20260506200808 | 61 | 84 | 1.0 | 2.0 | 0.00 | 0.02 | 0.02 | 83 | 1017.4 |
| 20260506200308 | 61 | 82 | 2.0 | 2.0 | 0.00 | 0.02 | 0.02 | 83 | 1017.4 |
| 20260506195808 | 61 | 82 | 3.0 | 3.0 | 0.00 | 0.02 | 0.02 | 83 | 1017.4 |
| 20260506195308 | 61 | 83 | 4.0 | 5.0 | 0.00 | 0.02 | 0.02 | 83 | 1017.4 |
| 20260506194808 | 61 | 82 | 4.0 | 5.0 | 0.00 | 0.02 | 0.02 | 83 | 1017.4 |
| 20260506194308 | 62 | 85 | 5.0 | 5.0 | 0.00 | 0.02 | 0.02 | 84 | 1017.4 |
| 20260506193808 | 62 | 89 | 4.0 | 7.0 | 0.00 | 0.02 | 0.02 | 83 | 1017.4 |
| 20260506193308 | 62 | 88 | 2.0 | 4.0 | 0.00 | 0.02 | 0.02 | 83 | 1017.5 |
| 20260506192808 | 62 | 29 | 1.0 | 3.0 | 0.00 | 0.02 | 0.02 | 82 | 1017.4 |
| 20260506192308 | 62 | 285 | 0.0 | 0.0 | 0.00 | 0.02 | 0.02 | 82 | 1017.4 |
| 20260506191808 | 62 | 285 | 0.0 | 0.0 | 0.00 | 0.02 | 0.02 | 81 | 1017.4 |
| 20260506191308 | 62 | 285 | 0.0 | 0.0 | 0.00 | 0.02 | 0.02 | 81 | 1017.4 |
| 20260506190808 | 62 | 284 | 0.0 | 0.0 | 0.00 | 0.02 | 0.02 | 80 | 1017.4 |
| 20260506190308 | 62 | 284 | 1.0 | 1.0 | 0.00 | 0.02 | 0.02 | 80 | 1017.3 |
| 20260506185808 | 63 | 284 | 1.0 | 2.0 | 0.00 | 0.02 | 0.02 | 80 | 1017.3 |
| 20260506185308 | 63 | 284 | 0.0 | 1.0 | 0.00 | 0.02 | 0.02 | 80 | 1017.2 |
| 20260506184808 | 63 | 284 | 0.0 | 0.0 | 0.00 | 0.02 | 0.02 | 80 | 1017.1 |
| 20260506184308 | 63 | 284 | 0.0 | 0.0 | 0.00 | 0.02 | 0.02 | 79 | 1017.3 |
| 20260506183808 | 63 | 284 | 0.0 | 0.0 | 0.00 | 0.02 | 0.02 | 78 | 1017.1 |
| 20260506183308 | 63 | 284 | 1.0 | 0.0 | 0.00 | 0.02 | 0.02 | 78 | 1017.0 |
| 20260506182808 | 63 | 284 | 1.0 | 2.0 | 0.00 | 0.02 | 0.02 | 78 | 1017.0 |
| 20260506182308 | 63 | 284 | 1.0 | 2.0 | 0.00 | 0.02 | 0.02 | 78 | 1017.0 |
| 20260506181808 | 63 | 284 | 1.0 | 2.0 | 0.00 | 0.02 | 0.02 | 78 | 1016.9 |
| 20260506181308 | 63 | 284 | 2.0 | 4.0 | 0.00 | 0.02 | 0.02 | 77 | 1016.9 |
| 20260506180808 | 63 | 284 | 2.0 | 4.0 | 0.00 | 0.02 | 0.02 | 77 | 1016.8 |
| 20260506180308 | 64 | 290 | 2.0 | 3.0 | 0.00 | 0.02 | 0.02 | 77 | 1016.8 |
| 20260506175808 | 64 | 279 | 3.0 | 3.0 | 0.00 | 0.02 | 0.02 | 77 | 1016.7 |
| 20260506175308 | 64 | 287 | 3.0 | 4.0 | 0.00 | 0.02 | 0.02 | 76 | 1016.7 |
| 20260506174808 | 64 | 284 | 3.0 | 4.0 | 0.00 | 0.02 | 0.02 | 75 | 1016.6 |
| 20260506174308 | 64 | 273 | 3.0 | 4.0 | 0.00 | 0.02 | 0.02 | 75 | 1016.5 |
| 20260506173808 | 64 | 279 | 2.0 | 4.0 | 0.00 | 0.02 | 0.02 | 74 | 1016.5 |
| 20260506173308 | 65 | 286 | 1.0 | 3.0 | 0.00 | 0.02 | 0.02 | 74 | 1016.3 |
| 20260506172808 | 65 | 251 | 2.0 | 3.0 | 0.00 | 0.02 | 0.02 | 73 | 1016.1 |
| 20260506172308 | 65 | 248 | 2.0 | 4.0 | 0.00 | 0.02 | 0.02 | 73 | 1016.2 |
| 20260506171808 | 65 | 260 | 2.0 | 4.0 | 0.00 | 0.02 | 0.02 | 72 | 1016.1 |
| 20260506171308 | 65 | 257 | 3.0 | 3.0 | 0.00 | 0.02 | 0.02 | 71 | 1016.2 |
| 20260506170808 | 65 | 246 | 2.0 | 4.0 | 0.00 | 0.02 | 0.02 | 71 | 1016.2 |
| 20260506170308 | 65 | 252 | 2.0 | 4.0 | 0.00 | 0.02 | 0.02 | 71 | 1016.2 |
| 20260506165808 | 65 | 257 | 3.0 | 4.0 | 0.00 | 0.02 | 0.02 | 71 | 1016.2 |
| 20260506165308 | 65 | 269 | 3.0 | 4.0 | 0.00 | 0.02 | 0.02 | 70 | 1016.2 |
| 20260506164808 | 65 | 265 | 3.0 | 4.0 | 0.00 | 0.02 | 0.02 | 70 | 1016.2 |
| 20260506164308 | 65 | 298 | 3.0 | 4.0 | 0.00 | 0.02 | 0.02 | 70 | 1016.2 |
| 20260506163808 | 65 | 302 | 4.0 | 7.0 | 0.00 | 0.02 | 0.02 | 70 | 1016.2 |
| 20260506163308 | 65 | 294 | 4.0 | 6.0 | 0.00 | 0.02 | 0.02 | 69 | 1016.3 |
| 20260506162808 | 65 | 265 | 4.0 | 7.0 | 0.00 | 0.02 | 0.02 | 70 | 1016.4 |
| 20260506162308 | 65 | 274 | 4.0 | 6.0 | 0.00 | 0.02 | 0.02 | 70 | 1016.4 |
| 20260506161808 | 65 | 292 | 3.0 | 6.0 | 0.00 | 0.02 | 0.02 | 71 | 1016.5 |
| 20260506161308 | 65 | 321 | 1.0 | 5.0 | 0.00 | 0.02 | 0.02 | 71 | 1016.4 |
| 20260506160808 | 65 | 315 | 0.0 | 0.0 | 0.00 | 0.02 | 0.02 | 73 | 1016.3 |
| 20260506160308 | 65 | 315 | 1.0 | 1.0 | 0.00 | 0.02 | 0.02 | 74 | 1016.4 |
| 20260506155808 | 65 | 315 | 2.0 | 3.0 | 0.00 | 0.02 | 0.02 | 74 | 1016.4 |
| 20260506155308 | 65 | 314 | 2.0 | 5.0 | 0.00 | 0.02 | 0.02 | 74 | 1016.6 |
| 20260506154808 | 65 | 333 | 2.0 | 4.0 | 0.00 | 0.02 | 0.02 | 74 | 1016.6 |
| 20260506154308 | 65 | 322 | 3.0 | 4.0 | 0.00 | 0.02 | 0.02 | 74 | 1016.6 |
| 20260506153808 | 65 | 355 | 3.0 | 3.0 | 0.00 | 0.02 | 0.02 | 74 | 1016.6 |
| 20260506153308 | 65 | 334 | 3.0 | 5.0 | 0.00 | 0.02 | 0.02 | 74 | 1016.6 |
| 20260506152808 | 65 | 338 | 3.0 | 5.0 | 0.00 | 0.02 | 0.02 | 74 | 1016.6 |
| 20260506152308 | 65 | 337 | 3.0 | 5.0 | 0.00 | 0.02 | 0.02 | 74 | 1016.5 |
| 20260506151808 | 65 | 314 | 3.0 | 7.0 | 0.00 | 0.02 | 0.02 | 74 | 1016.7 |
| 20260506151308 | 65 | 293 | 3.0 | 6.0 | 0.00 | 0.02 | 0.02 | 73 | 1016.7 |
| 20260506150808 | 64 | 306 | 3.0 | 7.0 | 0.00 | 0.02 | 0.02 | 73 | 1016.8 |
| 20260506150308 | 64 | 283 | 3.0 | 4.0 | 0.00 | 0.02 | 0.02 | 73 | 1016.8 |
| 20260506145808 | 65 | 302 | 2.0 | 5.0 | 0.00 | 0.02 | 0.02 | 73 | 1016.8 |
| 20260506145308 | 65 | 11 | 1.0 | 2.0 | 0.00 | 0.02 | 0.02 | 74 | 1016.8 |
| 20260506144808 | 64 | 11 | 2.0 | 2.0 | 0.00 | 0.02 | 0.02 | 74 | 1016.9 |
| 20260506144308 | 64 | 11 | 3.0 | 7.0 | 0.00 | 0.02 | 0.02 | 74 | 1016.9 |
| 20260506143808 | 64 | 15 | 2.0 | 5.0 | 0.00 | 0.02 | 0.02 | 75 | 1016.8 |
| 20260506143308 | 64 | 18 | 2.0 | 4.0 | 0.00 | 0.02 | 0.02 | 75 | 1016.9 |
| 20260506142808 | 64 | 355 | 3.0 | 4.0 | 0.00 | 0.02 | 0.02 | 74 | 1017.0 |
| 20260506142308 | 64 | 342 | 3.0 | 5.0 | 0.00 | 0.02 | 0.02 | 74 | 1017.1 |
| 20260506141808 | 64 | 342 | 3.0 | 7.0 | 0.00 | 0.02 | 0.02 | 74 | 1017.0 |
| 20260506141308 | 64 | 349 | 2.0 | 4.0 | 0.00 | 0.02 | 0.02 | 74 | 1017.0 |
| 20260506140808 | 64 | 338 | 2.0 | 3.0 | 0.00 | 0.02 | 0.02 | 75 | 1017.2 |
| 20260506140308 | 64 | 337 | 2.0 | 3.0 | 0.00 | 0.02 | 0.02 | 75 | 1017.3 |
| 20260506135808 | 64 | 280 | 3.0 | 6.0 | 0.00 | 0.02 | 0.02 | 75 | 1017.3 |
| 20260506135308 | 64 | 229 | 4.0 | 7.0 | 0.00 | 0.02 | 0.02 | 75 | 1017.4 |
| 20260506134808 | 64 | 288 | 3.0 | 6.0 | 0.00 | 0.02 | 0.02 | 75 | 1017.4 |
| 20260506134308 | 63 | 279 | 3.0 | 7.0 | 0.01 | 0.02 | 0.02 | 76 | 1017.5 |
| 20260506133808 | 63 | 325 | 4.0 | 10.0 | 0.02 | 0.02 | 0.02 | 77 | 1017.6 |
| 20260506133308 | 64 | 294 | 5.0 | 8.0 | 0.02 | 0.02 | 0.02 | 78 | 1017.4 |
| 20260506132808 | 63 | 295 | 5.0 | 8.0 | 0.02 | 0.02 | 0.02 | 79 | 1017.4 |
| 20260506132308 | 64 | 298 | 5.0 | 9.0 | 0.02 | 0.02 | 0.02 | 79 | 1017.4 |
| 20260506131809 | 64 | 267 | 5.0 | 6.0 | 0.02 | 0.02 | 0.02 | 79 | 1017.5 |
| 20260506131309 | 63 | 269 | 6.0 | 8.0 | 0.02 | 0.02 | 0.02 | 78 | 1017.5 |
| 20260506130809 | 63 | 278 | 7.0 | 11.0 | 0.02 | 0.02 | 0.02 | 78 | 1017.5 |
| 20260506130309 | 63 | 308 | 7.0 | 10.0 | 0.02 | 0.02 | 0.02 | 79 | 1017.6 |
| 20260506125809 | 63 | 271 | 5.0 | 9.0 | 0.02 | 0.02 | 0.02 | 77 | 1017.7 |
| 20260506125309 | 63 | 311 | 4.0 | 6.0 | 0.02 | 0.02 | 0.02 | 79 | 1017.5 |
| 20260506124809 | 64 | 296 | 6.0 | 7.0 | 0.02 | 0.02 | 0.02 | 78 | 1017.7 |
| 20260506124309 | 64 | 299 | 8.0 | 10.0 | 0.01 | 0.01 | 0.01 | 77 | 1017.7 |
| 20260506123809 | 64 | 279 | 8.0 | 12.0 | 0.00 | 0.00 | 0.00 | 75 | 1017.7 |
| 20260506123309 | 64 | 258 | 8.0 | 12.0 | 0.00 | 0.00 | 0.00 | 74 | 1017.6 |
| 20260506122809 | 65 | 284 | 9.0 | 11.0 | 0.00 | 0.00 | 0.00 | 72 | 1017.7 |
| 20260506122309 | 65 | 265 | 8.0 | 12.0 | 0.00 | 0.00 | 0.00 | 71 | 1017.6 |
| 20260506121809 | 66 | 268 | 7.0 | 11.0 | 0.00 | 0.00 | 0.00 | 68 | 1017.5 |
| 20260506121309 | 66 | 246 | 8.0 | 11.0 | 0.00 | 0.00 | 0.00 | 68 | 1017.6 |
| 20260506120809 | 66 | 242 | 10.0 | 12.0 | 0.00 | 0.00 | 0.00 | 68 | 1017.5 |
| 20260506120309 | 66 | 257 | 10.0 | 14.0 | 0.00 | 0.00 | 0.00 | 68 | 1017.4 |
| 20260506115809 | 66 | 277 | 10.0 | 14.0 | 0.00 | 0.00 | 0.00 | 67 | 1017.5 |
| 20260506115309 | 67 | 262 | 10.0 | 14.0 | 0.00 | 0.00 | 0.00 | 67 | 1017.3 |
| 20260506114809 | 68 | 260 | 8.0 | 14.0 | 0.00 | 0.00 | 0.00 | 65 | 1017.3 |
| 20260506114309 | 69 | 264 | 6.0 | 9.0 | 0.00 | 0.00 | 0.00 | 59 | 1017.3 |
| 20260506113809 | 68 | 220 | 7.0 | 10.0 | 0.00 | 0.00 | 0.00 | 63 | 1017.3 |
| 20260506113309 | 68 | 206 | 9.0 | 12.0 | 0.00 | 0.00 | 0.00 | 63 | 1017.2 |
| 20260506112809 | 68 | 232 | 11.0 | 14.0 | 0.00 | 0.00 | 0.00 | 65 | 1017.3 |
| 20260506112309 | 68 | 225 | 12.0 | 16.0 | 0.00 | 0.00 | 0.00 | 65 | 1017.2 |
| 20260506111809 | 69 | 206 | 12.0 | 16.0 | 0.00 | 0.00 | 0.00 | 66 | 1017.0 |
| 20260506111309 | 69 | 222 | 12.0 | 16.0 | 0.00 | 0.00 | 0.00 | 66 | 1017.1 |
| 20260506110809 | 69 | 252 | 11.0 | 17.0 | 0.00 | 0.00 | 0.00 | 66 | 1017.0 |
| 20260506110309 | 70 | 254 | 10.0 | 15.0 | 0.00 | 0.00 | 0.00 | 63 | 1016.9 |
| 20260506105809 | 70 | 256 | 10.0 | 16.0 | 0.00 | 0.00 | 0.00 | 65 | 1017.0 |
| 20260506105309 | 69 | 273 | 10.0 | 15.0 | 0.00 | 0.00 | 0.00 | 65 | 1017.0 |
| 20260506104809 | 70 | 256 | 8.0 | 12.0 | 0.00 | 0.00 | 0.00 | 64 | 1016.9 |
| 20260506104309 | 70 | 243 | 8.0 | 14.0 | 0.00 | 0.00 | 0.00 | 65 | 1017.0 |
| 20260506103809 | 69 | 254 | 10.0 | 14.0 | 0.00 | 0.00 | 0.00 | 65 | 1017.0 |
| 20260506103309 | 69 | 244 | 10.0 | 15.0 | 0.00 | 0.00 | 0.00 | 63 | 1017.1 |
| 20260506102809 | 69 | 241 | 9.0 | 14.0 | 0.00 | 0.00 | 0.00 | 62 | 1017.1 |
| 20260506102309 | 70 | 294 | 8.0 | 14.0 | 0.00 | 0.00 | 0.00 | 60 | 1017.0 |
| 20260506101809 | 70 | 256 | 6.0 | 13.0 | 0.00 | 0.00 | 0.00 | 60 | 1017.1 |
| 20260506101309 | 70 | 293 | 5.0 | 11.0 | 0.00 | 0.00 | 0.00 | 61 | 1017.1 |
| 20260506100809 | 70 | 335 | 6.0 | 8.0 | 0.00 | 0.00 | 0.00 | 60 | 1017.0 |
| 20260506100309 | 69 | 292 | 8.0 | 11.0 | 0.00 | 0.00 | 0.00 | 59 | 1017.1 |
| 20260506095809 | 69 | 278 | 8.0 | 12.0 | 0.00 | 0.00 | 0.00 | 59 | 1017.1 |
| 20260506095309 | 70 | 272 | 8.0 | 11.0 | 0.00 | 0.00 | 0.00 | 60 | 1017.1 |
| 20260506094809 | 70 | 313 | 9.0 | 13.0 | 0.00 | 0.00 | 0.00 | 61 | 1017.1 |
| 20260506094309 | 70 | 251 | 6.0 | 15.0 | 0.00 | 0.00 | 0.00 | 59 | 1017.2 |
| 20260506093809 | 71 | 317 | 3.0 | 9.0 | 0.00 | 0.00 | 0.00 | 56 | 1017.2 |
| 20260506093309 | 71 | 211 | 2.0 | 7.0 | 0.00 | 0.00 | 0.00 | 55 | 1017.3 |
| 20260506092809 | 70 | 292 | 3.0 | 5.0 | 0.00 | 0.00 | 0.00 | 55 | 1017.2 |
| 20260506092309 | 70 | 182 | 3.0 | 5.0 | 0.00 | 0.00 | 0.00 | 52 | 1017.3 |
| 20260506091809 | 71 | 243 | 3.0 | 6.0 | 0.00 | 0.00 | 0.00 | 53 | 1017.3 |
| 20260506091309 | 71 | 105 | 1.0 | 4.0 | 0.00 | 0.00 | 0.00 | 53 | 1017.3 |
| 20260506090809 | 70 | 56 | 2.0 | 2.0 | 0.00 | 0.00 | 0.00 | 55 | 1017.2 |
| 20260506090309 | 70 | 336 | 2.0 | 4.0 | 0.00 | 0.00 | 0.00 | 55 | 1017.3 |
| 20260506085809 | 69 | 336 | 2.0 | 4.0 | 0.00 | 0.00 | 0.00 | 56 | 1017.2 |
| 20260506085309 | 69 | 270 | 2.0 | 3.0 | 0.00 | 0.00 | 0.00 | 57 | 1017.3 |
| 20260506084809 | 69 | 245 | 2.0 | 4.0 | 0.00 | 0.00 | 0.00 | 57 | 1017.3 |
| 20260506084309 | 69 | 183 | 2.0 | 4.0 | 0.00 | 0.00 | 0.00 | 56 | 1017.3 |
| 20260506083809 | 69 | 269 | 1.0 | 3.0 | 0.00 | 0.00 | 0.00 | 57 | 1017.3 |
| 20260506083309 | 69 | 342 | 2.0 | 4.0 | 0.00 | 0.00 | 0.00 | 58 | 1017.3 |
| 20260506082809 | 69 | 337 | 2.0 | 5.0 | 0.00 | 0.00 | 0.00 | 57 | 1017.2 |
| 20260506082309 | 69 | 270 | 1.0 | 2.0 | 0.00 | 0.00 | 0.00 | 58 | 1017.1 |
| 20260506081809 | 69 | 333 | 2.0 | 4.0 | 0.00 | 0.00 | 0.00 | 62 | 1017.1 |
| 20260506081309 | 68 | 294 | 2.0 | 4.0 | 0.00 | 0.00 | 0.00 | 58 | 1016.9 |
| 20260506080809 | 67 | 59 | 3.0 | 5.0 | 0.00 | 0.00 | 0.00 | 59 | 1016.9 |
| 20260506080309 | 67 | 40 | 3.0 | 6.0 | 0.00 | 0.00 | 0.00 | 59 | 1016.9 |
| 20260506073309 | 67 | 343 | 3.0 | 6.0 | 0.00 | 0.00 | 0.00 | 62 | 1017.0 |
| 20260506072809 | 66 | 0 | 3.0 | 6.0 | 0.00 | 0.00 | 0.00 | 61 | 1016.9 |
| 20260506072309 | 66 | 31 | 2.0 | 5.0 | 0.00 | 0.00 | 0.00 | 62 | 1016.8 |
| 20260506071809 | 66 | 54 | 2.0 | 6.0 | 0.00 | 0.00 | 0.00 | 64 | 1016.8 |
| 20260506071309 | 65 | 5 | 3.0 | 6.0 | 0.00 | 0.00 | 0.00 | 63 | 1016.8 |
| 20260506070809 | 65 | 33 | 4.0 | 5.0 | 0.00 | 0.00 | 0.00 | 62 | 1016.8 |
| 20260506070309 | 65 | 13 | 4.0 | 9.0 | 0.00 | 0.00 | 0.00 | 63 | 1016.8 |
| 20260506062309 | 62 | 0 | 2.0 | 6.0 | 0.00 | 0.00 | 0.00 | 68 | 1017.2 |
| 20260506061809 | 62 | 340 | 1.0 | 3.0 | 0.00 | 0.00 | 0.00 | 70 | 1017.2 |
| 20260506061309 | 62 | 323 | 1.0 | 3.0 | 0.00 | 0.00 | 0.00 | 70 | 1017.1 |
| 20260506060809 | 61 | 316 | 1.0 | 3.0 | 0.00 | 0.00 | 0.00 | 70 | 1017.2 |
| 20260506060309 | 61 | 317 | 1.0 | 3.0 | 0.00 | 0.00 | 0.00 | 70 | 1017.1 |
| 20260506051309 | 56 | 297 | 1.0 | 3.0 | 0.00 | 0.00 | 0.00 | 76 | 1017.0 |
| 20260506050809 | 56 | 303 | 1.0 | 3.0 | 0.00 | 0.00 | 0.00 | 76 | 1017.0 |
| 20260506044809 | 55 | 290 | 3.0 | 4.0 | 0.00 | 0.00 | 0.00 | 77 | 1017.1 |
| 20260506044309 | 55 | 275 | 2.0 | 4.0 | 0.00 | 0.00 | 0.00 | 78 | 1017.1 |
| 20260506043809 | 55 | 305 | 3.0 | 4.0 | 0.00 | 0.00 | 0.00 | 78 | 1017.0 |
| 20260506043310 | 55 | 279 | 4.0 | 6.0 | 0.00 | 0.00 | 0.00 | 79 | 1017.0 |
| 20260506042809 | 55 | 286 | 3.0 | 7.0 | 0.00 | 0.00 | 0.00 | 78 | 1017.1 |
| 20260506042310 | 55 | 286 | 3.0 | 6.0 | 0.00 | 0.00 | 0.00 | 78 | 1017.0 |
| 20260506041810 | 54 | 304 | 3.0 | 5.0 | 0.00 | 0.00 | 0.00 | 78 | 1017.0 |
| 20260506041310 | 54 | 319 | 3.0 | 5.0 | 0.00 | 0.00 | 0.00 | 79 | 1017.0 |